• In Deutschland
  • Länderverzeichnis
  • Für 7 Tage
  • Wassertemperatur
  • Satellitenkarten
  • Wetterkarte
  • Widgets
  • user-avatar
    Anmelden

    Stündliche Wetter Bühl

    Heute, 24 April, Dienstag

    Zeit Temperatur Niederschläge Wind Luftdruck Luftfeuchtigkeit
    00:00 +14°C° 0 mm 2 m/S 750 mmHg 93%
    01:00 +13°C° 0 mm 1 m/S 750 mmHg 93%
    02:00 +13°C° 0 mm 1 m/S 750 mmHg 93%
    03:00 +12°C° 0 mm 1 m/S 750 mmHg 94%
    04:00 +12°C° 0 mm 1 m/S 750 mmHg 94%
    05:00 +12°C° 0 mm 1 m/S 750 mmHg 93%
    06:00 +13°C° 0 mm 1 m/S 750 mmHg 91%
    07:00 +14°C° 0 mm 1 m/S 750 mmHg 90%
    08:00 +15°C° 0 mm 2 m/S 750 mmHg 83%
    09:00 +17°C° 0 mm 2 m/S 750 mmHg 76%
    10:00 +18°C° 0 mm 3 m/S 750 mmHg 70%
    11:00 +19°C° 0 mm 3 m/S 750 mmHg 66%
    12:00 +20°C° 0 mm 3 m/S 749 mmHg 62%
    13:00 +20°C° 0 mm 3 m/S 749 mmHg 58%
    14:00 +20°C° 0 mm 3 m/S 749 mmHg 57%
    15:00 +21°C° 0 mm 3 m/S 748 mmHg 56%
    16:00 +21°C° 0 mm 3 m/S 748 mmHg 56%
    17:00 +19°C° 0 mm 3 m/S 748 mmHg 62%
    18:00 +18°C° 0 mm 2 m/S 748 mmHg 68%
    19:00 +18°C° 0 mm 1 m/S 747 mmHg 75%
    20:00 +16°C° 0 mm 1 m/S 748 mmHg 79%
    21:00 +14°C° 0 mm 1 m/S 748 mmHg 83%
    22:00 +13°C° 0 mm 1 m/S 748 mmHg 87%
    23:00 +13°C° 0 mm 1 m/S 748 mmHg 88%

    Morgen, 25 April, Mittwoch

    Zeit Temperatur Niederschläge Wind Luftdruck Luftfeuchtigkeit
    00:00 +13°C° 0 mm 1 m/S 748 mmHg 89%
    01:00 +12°C° 0 mm 1 m/S 748 mmHg 90%
    02:00 +12°C° 0 mm 2 m/S 747 mmHg 90%
    03:00 +12°C° 0 mm 2 m/S 747 mmHg 90%
    04:00 +12°C° 0 mm 2 m/S 747 mmHg 90%
    05:00 +13°C° 0 mm 2 m/S 747 mmHg 87%
    06:00 +14°C° 0 mm 2 m/S 747 mmHg 84%
    07:00 +15°C° 0 mm 2 m/S 746 mmHg 81%
    08:00 +17°C° 0 mm 3 m/S 746 mmHg 73%
    09:00 +18°C° 0 mm 4 m/S 746 mmHg 66%
    10:00 +20°C° 0 mm 5 m/S 746 mmHg 58%
    11:00 +21°C° 0 mm 6 m/S 746 mmHg 55%
    12:00 +22°C° 0 mm 6 m/S 746 mmHg 53%
    13:00 +23°C° 0 mm 7 m/S 746 mmHg 50%
    14:00 +22°C° 0 mm 7 m/S 745 mmHg 51%
    15:00 +22°C° 0 mm 7 m/S 745 mmHg 52%
    16:00 +22°C° 0 mm 7 m/S 745 mmHg 53%
    17:00 +20°C° 0 mm 6 m/S 745 mmHg 61%
    18:00 +17°C° 0 mm 5 m/S 746 mmHg 69%
    19:00 +15°C° 0 mm 4 m/S 746 mmHg 77%
    20:00 +14°C° 0 mm 3 m/S 746 mmHg 81%
    21:00 +13°C° 0 mm 3 m/S 747 mmHg 86%
    22:00 +13°C° 0 mm 2 m/S 748 mmHg 90%
    23:00 +13°C° 0 mm 2 m/S 748 mmHg 88%

    übermorgen, 26 April, Donnerstag

    Zeit Temperatur Niederschläge Wind Luftdruck Luftfeuchtigkeit
    00:00 +13°C° 0 mm 2 m/S 748 mmHg 87%
    01:00 +12°C° 0 mm 2 m/S 748 mmHg 85%
    02:00 +12°C° 0 mm 2 m/S 748 mmHg 85%
    03:00 +10°C° 0 mm 2 m/S 749 mmHg 85%
    04:00 +10°C° 0 mm 2 m/S 749 mmHg 85%
    05:00 +9°C° 0 mm 3 m/S 749 mmHg 84%
    06:00 +9°C° 0 mm 3 m/S 749 mmHg 82%
    07:00 +8°C° 0 mm 4 m/S 750 mmHg 81%
    08:00 +10°C° 0 mm 4 m/S 750 mmHg 73%
    09:00 +11°C° 0 mm 4 m/S 750 mmHg 65%
    10:00 +13°C° 0 mm 4 m/S 750 mmHg 57%
    11:00 +13°C° 0 mm 4 m/S 750 mmHg 53%
    12:00 +14°C° 0 mm 4 m/S 750 mmHg 50%
    13:00 +15°C° 0 mm 4 m/S 750 mmHg 47%
    14:00 +15°C° 0 mm 4 m/S 749 mmHg 47%
    15:00 +15°C° 0 mm 4 m/S 749 mmHg 47%
    16:00 +15°C° 0 mm 4 m/S 749 mmHg 47%
    17:00 +14°C° 0 mm 3 m/S 749 mmHg 53%
    18:00 +13°C° 0 mm 3 m/S 749 mmHg 59%
    19:00 +13°C° 0 mm 2 m/S 749 mmHg 65%
    20:00 +10°C° 0 mm 2 m/S 749 mmHg 69%
    21:00 +10°C° 0 mm 1 m/S 750 mmHg 74%
    22:00 +9°C° 0 mm 1 m/S 750 mmHg 78%
    23:00 +8°C° 0 mm 1 m/S 750 mmHg 80%

    27 April, Freitag

    Zeit Temperatur Niederschläge Wind Luftdruck Luftfeuchtigkeit
    00:00 +8°C° 0 mm 1 m/S 750 mmHg 82%
    01:00 +7°C° 0 mm 0 m/S 750 mmHg 84%
    02:00 +6°C° 0 mm 0 m/S 749 mmHg 84%
    03:00 +6°C° 0 mm 0 m/S 749 mmHg 85%
    04:00 +7°C° 0 mm 1 m/S 748 mmHg 86%
    05:00 +8°C° 0 mm 1 m/S 748 mmHg 82%
    06:00 +9°C° 0 mm 1 m/S 747 mmHg 78%
    07:00 +10°C° 0 mm 1 m/S 747 mmHg 75%
    08:00 +12°C° 0 mm 2 m/S 746 mmHg 68%
    09:00 +14°C° 0 mm 2 m/S 746 mmHg 61%
    10:00 +16°C° 0 mm 3 m/S 745 mmHg 54%
    11:00 +17°C° 0 mm 3 m/S 745 mmHg 52%
    12:00 +19°C° 0 mm 3 m/S 744 mmHg 50%
    13:00 +20°C° 0 mm 3 m/S 743 mmHg 47%
    14:00 +20°C° 0 mm 3 m/S 743 mmHg 48%
    15:00 +21°C° 0 mm 3 m/S 742 mmHg 48%
    16:00 +21°C° 0 mm 3 m/S 742 mmHg 49%
    17:00 +20°C° 0 mm 3 m/S 741 mmHg 56%
    18:00 +19°C° 0 mm 2 m/S 741 mmHg 63%
    19:00 +17°C° 0 mm 2 m/S 741 mmHg 69%
    20:00 +16°C° 0 mm 2 m/S 741 mmHg 73%
    21:00 +16°C° 0 mm 2 m/S 741 mmHg 76%
    22:00 +15°C° 0 mm 2 m/S 742 mmHg 79%
    23:00 +15°C° 0 mm 2 m/S 742 mmHg 81%

    28 April, Samstag

    Zeit Temperatur Niederschläge Wind Luftdruck Luftfeuchtigkeit
    00:00 +14°C° 0 mm 1 m/S 742 mmHg 82%
    01:00 +14°C° 0 mm 1 m/S 741 mmHg 84%
    02:00 +14°C° 0 mm 1 m/S 742 mmHg 85%
    03:00 +14°C° 0 mm 1 m/S 742 mmHg 86%
    04:00 +14°C° 0 mm 1 m/S 742 mmHg 86%
    05:00 +14°C° 0 mm 1 m/S 742 mmHg 85%
    06:00 +14°C° 0 mm 1 m/S 742 mmHg 83%
    07:00 +15°C° 0 mm 1 m/S 743 mmHg 82%
    08:00 +16°C° 0 mm 1 m/S 743 mmHg 76%
    09:00 +19°C° 0 mm 1 m/S 743 mmHg 70%
    10:00 +20°C° 0 mm 1 m/S 743 mmHg 65%
    11:00 +21°C° 0 mm 1 m/S 743 mmHg 62%
    12:00 +22°C° 0 mm 1 m/S 742 mmHg 59%
    13:00 +23°C° 0 mm 1 m/S 742 mmHg 56%
    14:00 +23°C° 0,2 mm 1 m/S 742 mmHg 57%
    15:00 +23°C° 0,2 mm 1 m/S 741 mmHg 59%
    16:00 +21°C° 0,2 mm 2 m/S 741 mmHg 61%
    17:00 +21°C° 0,1 mm 1 m/S 741 mmHg 66%
    18:00 +20°C° 0,1 mm 1 m/S 741 mmHg 72%
    19:00 +19°C° 0,1 mm 1 m/S 740 mmHg 77%
    20:00 +18°C° 0,1 mm 1 m/S 741 mmHg 80%
    21:00 +16°C° 0,1 mm 1 m/S 741 mmHg 82%
    22:00 +16°C° 0,1 mm 1 m/S 741 mmHg 85%
    23:00 +15°C° 0,2 mm 1 m/S 740 mmHg 86%

    29 April, Sonntag

    Zeit Temperatur Niederschläge Wind Luftdruck Luftfeuchtigkeit
    00:00 +15°C° 0,2 mm 1 m/S 740 mmHg 88%
    01:00 +15°C° 0,2 mm 1 m/S 740 mmHg 90%
    02:00 +14°C° 0,3 mm 1 m/S 740 mmHg 91%
    03:00 +14°C° 0,3 mm 1 m/S 739 mmHg 92%
    04:00 +14°C° 0,3 mm 1 m/S 739 mmHg 93%
    05:00 +15°C° 0,6 mm 1 m/S 739 mmHg 93%
    06:00 +15°C° 0,6 mm 1 m/S 739 mmHg 93%
    07:00 +15°C° 0,6 mm 1 m/S 739 mmHg 93%
    08:00 +16°C° 0,6 mm 1 m/S 739 mmHg 90%
    09:00 +18°C° 0,6 mm 1 m/S 739 mmHg 87%
    10:00 +17°C° 0,6 mm 2 m/S 739 mmHg 84%
    11:00 +17°C° 1,4 mm 2 m/S 740 mmHg 85%
    12:00 +17°C° 1,4 mm 2 m/S 740 mmHg 86%
    13:00 +16°C° 1,4 mm 2 m/S 740 mmHg 86%
    14:00 +17°C° 0,2 mm 2 m/S 740 mmHg 80%
    15:00 +20°C° 0,2 mm 1 m/S 740 mmHg 73%
    16:00 +21°C° 0,2 mm 1 m/S 739 mmHg 66%
    17:00 +20°C° 0,1 mm 1 m/S 739 mmHg 70%
    18:00 +19°C° 0,1 mm 1 m/S 739 mmHg 74%
    19:00 +18°C° 0,1 mm 1 m/S 739 mmHg 78%
    20:00 +16°C° 0,7 mm 1 m/S 739 mmHg 82%
    21:00 +16°C° 0,7 mm 1 m/S 739 mmHg 86%
    22:00 +15°C° 0,7 mm 2 m/S 739 mmHg 90%
    23:00 +14°C° 2,3 mm 2 m/S 740 mmHg 90%
    Mehr zeigen